Orbital Elements at Epoch 2459000.5 (2020-May-31.0) TDB
Reference: JPL 16 (heliocentric ecliptic J2000)
Element | Value | Uncertainty (1-sigma) | Units |
e | .08494530741697714 | 6.4244e-08 | |
a | 2.697935109958838 | 1.3378e-08 | au |
q | 2.468758182652329 | 1.7757e-07 | au |
i | 3.943876939212647 | 6.6869e-06 | deg |
node | 342.4798630768349 | 5.0433e-05 | deg |
peri | 353.2874906403662 | 5.6328e-05 | deg |
M | 339.2922880057211 | 2.2769e-05 | deg |
tp | 2459093.605490436813 (2020-Sep-01.10549044) | 0.00010223 | TDB |
period | 1618.622886319494 4.43 | 1.2039e-05 3.296e-08 | d yr |
n | .2224112874238335 | 1.6542e-09 | deg/d |
Q | 2.927112037265347 | 1.4514e-08 | au |
|
| | Orbit Determination Parameters
Additional Information
|